Date String (YYYY-MM-DD hh:mm:ss) UTC,Instrument flags,absolute air pressure of the measurement (hPa),sample flow rate (lpm),inlet stack bypass flow (lpm),air temperature of the measurement (°C),ambient temperature measured by the external sensor (°C),aerosol sample conditioner tube jacket temperature (°C),OPC LED temperature (°C),internal box temperature (°C),relative humidity of the measurement (%),span deviation,mass concentration of particles derived from Lorenz-Mie calculation of OPC scattering (μg/m³),mass concentration of particles derived from Lorenz-Mie calculation of OPC scattering (μg/m³),mass concentration of particles derived from Lorenz-Mie calculation of OPC scattering (μg/m³)
DateTimeUTC,F1_M11,P_M11,Q1_M11,Q2_M11,T1_M11,T2_M11,T3_M11,T4_M11,T5_M11,U1_M11,ZSPAN_M11,X2_M11,X0_M11,X1_M11
2024-01-30 16:00:00,SystemResetWarning,0835.3,5.00,000.00,021.8,021.2,000.0,030.0,023.4,16.3,0000.0,0001.70,0003.76,0001.19
2024-01-30 16:01:00,SystemResetWarning,0835.3,5.01,000.00,021.8,021.2,000.0,030.0,023.4,16.8,0000.0,0001.66,0003.28,0001.18
2024-01-30 16:02:00,SystemResetWarning,0835.3,5.00,000.00,021.9,021.3,000.0,030.0,023.4,16.7,0000.0,0001.67,0003.03,0001.18
2024-01-30 16:03:00,SystemResetWarning,0835.3,4.99,000.00,021.9,021.3,000.0,030.0,023.4,16.3,0000.0,0001.67,0002.99,0001.18
2024-01-30 16:04:00,SystemResetWarning,0835.3,5.00,000.00,021.9,021.3,000.0,030.0,023.4,16.0,0000.0,0001.63,0002.82,0001.18
2024-01-30 16:05:00,SystemResetWarning,0835.3,5.00,000.00,021.9,021.3,000.0,030.1,023.5,16.2,0000.0,0001.64,0002.83,0001.17
2024-01-30 16:06:00,SystemResetWarning,0835.3,4.99,000.00,021.9,021.3,000.0,030.1,023.5,16.9,0000.0,0001.68,0002.87,0001.18
2024-01-30 16:07:00,SystemResetWarning,0835.3,5.00,000.00,021.9,021.4,000.0,030.1,023.5,16.8,0000.0,0001.70,0003.00,0001.19
2024-01-30 16:08:00,SystemResetWarning,0835.3,4.99,000.00,022.0,021.4,000.0,030.1,023.5,17.0,0000.0,0001.76,0003.15,0001.23
2024-01-30 16:09:00,SystemResetWarning,0835.3,5.00,000.00,022.0,021.4,000.0,030.1,023.5,17.0,0000.0,0001.75,0003.20,0001.24
2024-01-30 16:10:00,SystemResetWarning,0835.3,5.01,000.00,022.0,021.4,000.0,030.1,023.6,16.9,0000.0,0001.76,0003.16,0001.26
2024-01-30 16:11:00,SystemResetWarning,0835.3,5.01,000.00,022.0,021.4,000.0,030.2,023.6,16.9,0000.0,0001.75,0003.13,0001.26
2024-01-30 16:12:00,SystemResetWarning,0835.2,5.00,000.00,022.0,021.4,000.0,030.2,023.6,16.7,0000.0,0001.78,0003.67,0001.27
2024-01-30 16:13:00,SystemResetWarning,0835.2,5.00,000.00,022.0,021.5,000.0,030.2,023.6,16.8,0000.0,0001.84,0006.03,0001.32
2024-01-30 16:14:00,SystemResetWarning,0835.2,5.00,000.00,022.1,021.5,000.0,030.2,023.6,17.0,0000.0,0001.87,0006.08,0001.36
2024-01-30 16:15:00,SystemResetWarning,0835.2,5.00,000.00,022.1,021.5,000.0,030.2,023.6,17.0,0000.0,0001.90,0006.23,0001.39
2024-01-30 16:16:00,SystemResetWarning,0835.2,5.00,000.00,022.1,021.5,000.0,030.2,023.7,16.8,0000.0,0001.93,0007.65,0001.42
2024-01-30 16:17:00,SystemResetWarning,0835.1,5.00,000.00,022.1,021.5,000.0,030.3,023.7,16.9,0000.0,0001.92,0007.60,0001.44
2024-01-30 16:18:00,SystemResetWarning,0835.1,4.99,000.00,022.1,021.6,000.0,030.3,023.7,17.0,0000.0,0001.89,0007.46,0001.45
2024-01-30 16:19:00,SystemResetWarning,0835.1,5.00,000.00,022.2,021.6,000.0,030.3,023.7,17.0,0000.0,0001.84,0007.32,0001.45
2024-01-30 16:20:00,SystemResetWarning,0835.1,5.00,000.00,022.2,021.6,000.0,030.3,023.7,17.1,0000.0,0001.82,0007.22,0001.45
2024-01-30 16:21:00,SystemResetWarning,0835.1,5.00,000.00,022.2,021.6,000.0,030.3,023.8,17.2,0000.0,0001.83,0007.26,0001.47
2024-01-30 16:22:00,SystemResetWarning,0835.1,5.00,000.00,022.2,021.6,000.0,030.3,023.8,17.3,0000.0,0001.83,0007.21,0001.49
2024-01-30 16:23:00,SystemResetWarning,0835.1,5.00,000.00,022.2,021.7,000.0,030.4,023.8,17.2,0000.0,0001.83,0007.14,0001.50
2024-01-30 16:24:00,SystemResetWarning,0835.1,5.00,000.00,022.2,021.7,000.0,030.4,023.8,17.0,0000.0,0001.83,0005.20,0001.48
2024-01-30 16:25:00,SystemResetWarning,0835.1,5.00,000.00,022.3,021.7,000.0,030.4,023.8,17.0,0000.0,0001.81,0005.90,0001.45
2024-01-30 16:26:00,SystemResetWarning,0835.1,5.00,000.00,022.3,021.7,000.0,030.4,023.8,16.8,0000.0,0001.85,0006.17,0001.44
2024-01-30 16:27:00,SystemResetWarning,0835.1,5.01,000.00,022.3,021.7,000.0,030.4,023.9,16.7,0000.0,0001.84,0004.52,0001.44
2024-01-30 16:28:00,SystemResetWarning,0835.0,5.00,000.00,022.3,021.8,000.0,030.5,023.9,16.6,0000.0,0001.90,0004.68,0001.45
2024-01-30 16:29:00,SystemResetWarning,0835.0,5.00,000.00,022.3,021.8,000.0,030.5,023.9,16.4,0000.0,0001.92,0004.71,0001.46
2024-01-30 16:30:00,SystemResetWarning,0835.0,5.00,000.00,022.4,021.8,000.0,030.5,023.9,16.1,0000.0,0001.93,0004.75,0001.46
2024-01-30 16:31:00,SystemResetWarning,0835.0,5.00,000.00,022.4,021.8,000.0,030.5,023.9,16.0,0000.0,0001.95,0004.80,0001.47
2024-01-30 16:32:00,SystemResetWarning,0834.9,5.00,000.00,022.4,021.8,000.0,030.5,023.9,15.9,0000.0,0001.96,0004.88,0001.47
2024-01-30 16:33:00,SystemResetWarning,0834.9,5.00,000.00,022.4,021.8,000.0,030.5,024.0,16.3,0000.0,0001.97,0004.95,0001.48
2024-01-30 16:34:00,SystemResetWarning,0834.9,5.00,000.00,022.4,021.8,000.0,030.6,024.0,16.6,0000.0,0001.95,0004.54,0001.48
2024-01-30 16:35:00,SystemResetWarning,0835.0,5.00,000.00,022.4,021.9,000.0,030.6,024.0,16.4,0000.0,0001.93,0004.28,0001.48
2024-01-30 16:36:00,SystemResetWarning,0835.1,5.00,000.00,022.5,021.9,000.0,030.6,024.0,16.1,0000.0,0001.95,0003.48,0001.47
2024-01-30 16:37:00,SystemResetWarning,0835.3,5.00,000.00,022.5,021.9,000.0,030.6,024.0,16.4,0000.0,0001.91,0002.95,0001.47
2024-01-30 16:38:00,SystemResetWarning,0835.4,5.00,000.00,022.5,021.9,000.0,030.6,024.0,16.5,0000.0,0001.94,0003.06,0001.49
2024-01-30 16:39:00,SystemResetWarning,0835.4,5.00,000.00,022.5,021.9,000.0,030.6,024.0,16.4,0000.0,0001.91,0003.00,0001.50
2024-01-30 16:40:00,SystemResetWarning,0835.4,5.01,000.00,022.5,021.9,000.0,030.7,024.1,16.5,0000.0,0001.96,0003.42,0001.51
2024-01-30 16:41:00,SystemResetWarning,0835.3,5.01,000.00,022.6,022.0,000.0,030.7,024.1,16.4,0000.0,0002.05,0003.82,0001.54
2024-01-30 16:42:00,SystemResetWarning,0835.3,5.01,000.00,022.6,022.0,000.0,030.7,024.1,16.2,0000.0,0002.13,0004.73,0001.57
2024-01-30 16:43:00,SystemResetWarning,0835.4,5.00,000.00,022.6,022.0,000.0,030.7,024.1,15.8,0000.0,0002.18,0006.30,0001.58
2024-01-30 16:44:00,SystemResetWarning,0835.2,5.00,000.00,022.6,022.0,000.0,030.7,024.1,16.5,0000.0,0002.29,0006.98,0001.60
2024-01-30 16:45:00,SystemResetWarning,0835.3,5.00,000.00,022.6,022.0,000.0,030.7,024.2,16.6,0000.0,0002.36,0008.05,0001.61
2024-01-30 16:46:00,SystemResetWarning,0835.4,5.00,000.00,022.6,022.1,000.0,030.8,024.2,16.5,0000.0,0002.35,0008.04,0001.61
2024-01-30 16:47:00,SystemResetWarning,0835.4,5.00,000.00,022.7,022.1,000.0,030.8,024.2,16.7,0000.0,0002.35,0008.09,0001.62
2024-01-30 16:48:00,SystemResetWarning,0835.4,5.00,000.00,022.7,022.1,000.0,030.8,024.2,16.8,0000.0,0002.36,0008.49,0001.63
2024-01-30 16:49:00,SystemResetWarning,0835.3,5.00,000.00,022.7,022.1,000.0,030.8,024.2,16.8,0000.0,0002.39,0009.55,0001.63
2024-01-30 16:50:00,SystemResetWarning,0835.3,5.00,000.00,022.7,022.1,000.0,030.8,024.2,16.7,0000.0,0002.40,0009.87,0001.64
2024-01-30 16:51:00,SystemResetWarning,0835.4,5.01,000.00,022.7,022.1,000.0,030.9,024.2,16.6,0000.0,0002.39,0009.84,0001.65
2024-01-30 16:52:00,SystemResetWarning,0835.3,5.01,000.00,022.7,022.2,000.0,030.9,024.2,16.8,0000.0,0002.41,0009.85,0001.65
2024-01-30 16:53:00,SystemResetWarning,0835.3,5.00,000.00,022.8,022.2,000.0,030.9,024.3,16.5,0000.0,0002.37,0009.71,0001.64
2024-01-30 16:54:00,SystemResetWarning,0835.3,5.00,000.00,022.8,022.2,000.0,030.9,024.3,16.3,0000.0,0002.31,0008.95,0001.62
2024-01-30 16:55:00,SystemResetWarning,0835.3,5.00,000.00,022.8,022.2,000.0,030.9,024.3,16.3,0000.0,0002.20,0008.77,0001.60
2024-01-30 16:56:00,SystemResetWarning,0835.0,5.00,000.00,022.8,022.2,000.0,030.9,024.3,16.4,0000.0,0002.14,0008.28,0001.59
2024-01-30 16:57:00,SystemResetWarning,0834.8,5.00,000.00,022.8,022.2,000.0,031.0,024.4,16.7,0000.0,0002.10,0008.00,0001.58
2024-01-30 16:58:00,SystemResetWarning,0834.8,5.00,000.00,022.8,022.3,000.0,031.0,024.4,16.9,0000.0,0002.05,0007.91,0001.57
2024-01-30 16:59:00,SystemResetWarning,0834.8,5.00,000.00,022.9,022.3,000.0,031.0,024.4,16.9,0000.0,0002.00,0007.45,0001.57
